Regional Weather Roundup
Issued by NWS

Home | Current Version | Previous Version | Graphics & Text | Print | Product List | Glossary On
Versions: 1 2 3 4 5 6 7 8 9 10 11 12 13 14 15 16 17 18 19 20 21 22 23 24 25 26 27 28 29 30 31 32 33 34 35 36 37 38 39 40 41 42 43 44 45 46
000
ASUS43 KMKX 231700
RWRWI

WISCONSIN REGIONAL WEATHER ROUNDUP
NATIONAL WEATHER SERVICE MILWAUKEE/SULLIVAN WI
1200 PM CDT TUE AUG 23 2016

NOTE: "FAIR" INDICATES FEW OR NO CLOUDS BELOW 12,000 FEET WITH NO
SIGNIFICANT WEATHER AND/OR OBSTRUCTIONS TO VISIBILITY.

WIZ001-002-006>008-014>016-023>028-231800-
NORTHWEST WISCONSIN

CITY           SKY/WX    TMP DP  RH WIND       PRES   REMARKS
SUPERIOR ARPT  MOSUNNY   79  65  62 S13       29.89F HX  81
ASHLAND        SUNNY     80  65  59 S15G22    29.93F HX  82
HAYWARD        SUNNY     78  62  57 S17G26    29.97S HX  80
SIREN          SUNNY     79  62  56 S12G20    29.94S HX  80
CUMBERLAND     SUNNY     75  63  64 S13       29.98S
RICE LAKE      SUNNY     77  63  62 S16G22    30.00F
CHETEK         NOT AVBL
LADYSMITH      SUNNY     77  64  63 S18       30.03S
EAU CLAIRE     NOT AVBL
MENOMONIE      MOSUNNY   78  63  60 S12       30.00S HX  80
NEW RICHMOND   MOSUNNY   77  62  59 S14G23    29.97S
OSCEOLA        MOSUNNY   78  64  62 S17       29.97S HX  80
$$

WIZ003>005-009-010-017-018-231800-
NORTH CENTRAL WISCONSIN

CITY           SKY/WX    TMP DP  RH WIND       PRES   REMARKS
MANITOWISH WTR NOT AVBL
ARBOR VITAE    SUNNY     77  64  65 S16       30.04F
WOODRUFF       SUNNY     77  64  65 S16       30.04F
RHINELANDER    SUNNY     76  64  66 S12G20    30.07F
EAGLE RIVER    SUNNY     75  59  57 S9        30.06S
LAND O LAKES   SUNNY     76  61  59 SW7       30.06S
PHILLIPS       SUNNY     76  64  67 S12G20    30.03S
TOMAHAWK       SUNNY     75  63  66 S5        30.07S
MEDFORD        SUNNY     74  64  72 S10G18    30.06F
MERRILL        SUNNY     77  64  65 SW13      30.08S
$$

WIZ029-030-035-036-043>047-231800-
CENTRAL WISCONSIN

CITY           SKY/WX    TMP DP  RH WIND       PRES   REMARKS
WAUSAU         SUNNY     77  62  59 S15G22    30.07F
MOSINEE        SUNNY     75  64  69 S15       30.10F
MARSHFIELD     SUNNY     80  63  55 S14G21    30.07F HX  81
STEVENS POINT  SUNNY     76  61  59 S15       30.10F
WAUPACA        SUNNY     80  62  54 S13       30.11F HX  81
WAUTOMA        SUNNY     78  63  59 S12       30.11F HX  80
WISC RAPIDS    SUNNY     78  63  59 SW17G23   30.10F HX  80
CAMP DOUGLAS   NOT AVBL
$$

WIZ011>013-019>022-031-037>040-048>050-231800-
NORTHEAST WISCONSIN

CITY           SKY/WX    TMP DP  RH WIND       PRES   REMARKS
ANTIGO         SUNNY     74  63  66 S13       30.10F
SHAWANO        SUNNY     78  62  57 SW9       30.11F HX  80
OCONTO         NOT AVBL
STURGEON BAY   SUNNY     79  63  57 S13G21    30.12F HX  80
GREEN BAY      SUNNY     78  65  63 SW12G18   30.12F HX  80
MANITOWOC      NOT AVBL
APPLETON       MOSUNNY   77  57  50 SW13G18   30.12F
CLINTONVILLE   SUNNY     79  59  50 SW14      30.10F HX  80
OSHKOSH        SUNNY     79  63  57 S15       30.12F HX  80
$$

WIZ032>034-041-042-053>061-231800-
SOUTHWEST WISCONSIN

CITY           SKY/WX    TMP DP  RH WIND       PRES   REMARKS
LA CROSSE      MOSUNNY   78  69  73 SE15      30.05F HX  80
SPARTA         MOSUNNY   78  63  60 S13       30.08F HX  80
VIROQUA        MOSUNNY   76  63  63 S13       30.10F
BOSCOBEL       MOSUNNY   78  62  57 S9G18     30.10F HX  80
PRAIRIE DU CHI PTSUNNY   78  62  58 S6        30.08F
PLATTEVILLE    SUNNY     76  67  74 S14       30.14F
$$

WIZ056-057-062-063-064-067-068-231800-
SOUTH CENTRAL WISCONSIN

CITY           SKY/WX    TMP DP  RH WIND       PRES   REMARKS
REEDSBURG      NOT AVBL
BARABOO/DELLS  MOSUNNY   76  62  62 SW14      30.12F
LONE ROCK      NOT AVBL
MINERAL POINT  SUNNY     77  63  61 S16G22    30.14F
MADISON        PTSUNNY   76  62  62 S16       30.14F
MIDDLETON      SUNNY     78  63  59 S14       30.14F HX  80
WATERTOWN      SUNNY     76  63  63 SW12G17   30.16F
MONROE         SUNNY     75  63  64 S13G18    30.16S
JANESVILLE     PTSUNNY   81  63  54 S15G21    30.16F HX  82
$$

WIZ051-052-058>065-066-070>072-231800-
SOUTHEAST WISCONSIN

CITY           SKY/WX    TMP DP  RH WIND       PRES   REMARKS
MILWAUKEE      PTSUNNY   82  60  47 SW14      30.17F HX  82
WAUKESHA       PTSUNNY   73  57  56 S12       30.18F
MILWAUKEE/TIMM MOSUNNY   79  55  44 SW14G22   30.18F
RACINE         PTSUNNY   80  59  48 S9G18     30.19F HX  81
BURLINGTON     SUNNY     78  60  53 SW14G20   30.18F
KENOSHA        MOSUNNY   79  61  53 SW16G22   30.19F HX  80
FOND DU LAC    SUNNY     79  63  57 MISG      30.14F HX  80
SHEBOYGAN      MOSUNNY   79  60  52 SW13G23   30.15F HX  80
WEST BEND      MOSUNNY   77  59  53 SW12G21   30.17F
JUNEAU         SUNNY     76  63  63 S15       30.17F
$$

LSZ147-162-231800-
LAKE SUPERIOR

STATION/POSITION TIME  TEMP    WIND        PRES    WAVE
                       AIR SEA DIR/SP/G            HT/PER
                 (UTC) (F)     (DEG/KT/KT) (MB)    (FT/S)
W MID LAKE BUOY  1550   69 66  200/  8/ 10 1013.1S   2/ 5
DEVILS ISLAND    1600   74     190/  5/  6 1012.7F
SAXON HARBOR     1640   81     200/  8/ 18 1013.5S
$$

LMZ867-665-643>646-231800-
LAKE MICHIGAN

STATION/POSITION TIME  TEMP    WIND        PRES    WAVE
                       AIR SEA DIR/SP/G            HT/PER
                 (UTC) (F)     (DEG/KT/KT) (MB)    (FT/S)
CHAMBERS ISLAND  1600   73     190/  7/ 15 1019.6
S GREEN BAY BUOY 1600   73 73  200/ 16/ 19 1019.4R
N MID LAKE BUOY  1550   71 71  210/ 19/ 21 1018.9R   5/ 6
NORTHPORT PIER   1600   77     170/  3/ 10 1019.3S
SISTER BAY       1622   78     240/ 13/ 16   N/A
KEWAUNEE LAKESHO 1600   64     180/ 11/ 12 1020.3S
SHEBOYGAN LAKESH 1600   65     170/ 17/ 18 1021.5F
PORT WASHINGTON  1600   71     180/  5/  8 1022.4
ATWATER BUOY     1600   70 63  170/ 10/ 12   N/A
MILWAUKEE LAKESH 1610   75     210/ 11/ 13   N/A
S MID LAKE BUOY  1550   73 74  180/ 17/ 21 1022.5R   3/ 5
KENOSHA   LAKESH 1600   71     160/ 13/ 16 1022.0F
$$

TC  - TEMPERATURE IN CELSIUS
VSB - VISIBILITY IN STATUTE MILES
WCI - WIND CHILL INDEX
HX  - HEAT INDEX





USA.gov is the U.S. government's official web portal to all federal, state and local government web resources and services.